Weather observations for the past three days for
St. Petersburg/Clearwater Airport
Imperial (Metric)
Date Time (edt) Wind (mph) Vis. (mi.) Weather Sky Cond. Temperature (ºF) Relative Humidity Wind Chill (°F) Heat Index (°F) Pressure Precipitation (in)
Air Dwpt 6 hour altimeter (in) sea level (mb) 1 hr 3 hr 6 hr
Max. Min.
01 15:53 NW 7 10.00 Fair CLR 90 77 66% 103 29.96 1014.5
01 14:53 NE 3 10.00 Fair CLR 90 75 62% 100 29.99 1015.4
01 13:53 Vrbl 5 10.00 Fair CLR 89.1 75 90 80.1 63% 99 30.02 1016.4
01 12:53 Vrbl 5 10.00 Fair CLR 87.1 77 72% 99 30.03 1016.9
01 11:53 NE 7 10.00 Fair CLR 86 77 75% 97 30.06 1017.8
01 10:53 NE 6 10.00 Fair CLR 84.9 78.1 80% 97 30.05 1017.6
01 09:53 E 6 10.00 Fair CLR 82.9 77 82% 92 30.04 1017.2
01 08:53 E 6 10.00 Fair CLR 82 78.1 88% 91 30.03 1016.7
01 07:53 E 6 10.00 Partly Cloudy SCT008 80.1 77 80.1 79 90% 86 30.02 1016.5
01 06:53 NE 6 10.00 Partly Cloudy SCT008 79 77 94% 83 30.01 1016.2
01 05:53 NE 5 10.00 A Few Clouds FEW008 79 75.9 90% 83 30 1015.8
01 04:53 NE 5 10.00 Fair CLR 79 77 94% 83 29.98 1015.2
01 03:53 NE 7 10.00 Fair CLR 79 75.9 90% 83 29.99 1015.5
01 02:53 NE 7 10.00 Fair CLR 79 75.9 90% 83 30 1015.9
01 01:53 E 6 10.00 Fair CLR 80.1 75.9 81 78.1 87% 85 30.03 1016.7
01 00:53 E 5 10.00 Fair CLR 80.1 75.9 87% 85 30.04 1017.1
31 23:53 E 5 10.00 A Few Clouds FEW100 81 75 82% 87 30.05 1017.4
31 22:53 E 6 10.00 Fair CLR 80.1 73.9 82% 85 30.04 1017.3
31 21:53 SE 5 10.00 Fair CLR 79 75 88% 83 30.04 1017.1
31 20:53 Calm 10.00 Fair CLR 79 75.9 90% 83 30.02 1016.6
31 19:53 SE 7 10.00 Fair CLR 79 75.9 91 78.1 90% 83 30.03 1016.7 0.02
31 18:53 E 8 10.00 Light Rain SCT042 OVC055 79 75.9 90% 83 30.01 1016.3 0.02
31 17:53 NE 9 10.00 Thunderstorm in Vicinity FEW032 SCT047 89.1 77 68% 102 30.01 1016.1
31 16:53 NW 12 10.00 Fair CLR 89.1 75.9 65% 100 29.99 1015.4
31 15:53 N 12 10.00 Fair CLR 90 77 66% 103 29.99 1015.6
31 14:53 N 8 10.00 Fair CLR 90 75.9 63% 102 30 1016.0
31 13:53 N 6 10.00 Fair CLR 90 73.9 90 78.1 59% 99 30.03 1016.9
31 12:53 NE 7 10.00 Fair CLR 88 73.9 63% 97 30.06 1017.7
31 11:53 NE 7 10.00 Fair CLR 87.1 77 72% 99 30.06 1018.0
31 10:53 E 5 10.00 Fair CLR 84 77 80% 94 30.06 1017.8
31 09:53 E 6 10.00 Fair CLR 82 77 85% 90 30.06 1017.7
31 08:53 E 5 10.00 Fair CLR 80.1 75.9 87% 85 30.06 1017.7
31 07:53 NE 5 10.00 A Few Clouds FEW009 78.1 75.9 78.1 75.9 93% 81 30.04 1017.1
31 06:53 E 3 10.00 Fair CLR 77 75.9 96% 78 30.01 1016.2
31 05:53 Calm 10.00 Fair CLR 75.9 75 97% 75 30 1016.0
31 04:53 E 5 10.00 Fair CLR 77 75 94% 78 30 1015.7
31 03:53 SE 3 10.00 A Few Clouds FEW100 77 75 94% 78 30 1015.9
31 02:53 E 5 10.00 Fair CLR 78.1 75 90% 81 30.01 1016.1
31 01:53 E 9 10.00 Fair CLR 78.1 73.9 78.1 75.9 87% 81 30.02 1016.6
31 00:53 Calm 10.00 Fair CLR 75.9 75 97% 75 30.03 1016.9
30 23:53 E 7 10.00 Fair CLR 78.1 75 90% 81 30.03 1016.9
30 22:53 E 7 10.00 Mostly Cloudy BKN012 78.1 75.9 93% 81 30.04 1017.1
30 21:53 E 9 10.00 Mostly Cloudy BKN012 78.1 75.9 93% 81 30.04 1017.2
30 20:53 Calm 10.00 Partly Cloudy SCT013 78.1 75.9 93% 81 30.03 1016.9
30 19:53 NE 6 10.00 Light Rain SCT013 SCT110 78.1 75.9 90 75.9 93% 81 30.02 1016.5 0.05 0.85
30 18:53 Calm 10.00 Rain BKN100 BKN110 77 75 94% 78 30.02 1016.5 0.04
30 17:53 S 10 10.00 Thunderstorm Rain SCT055 BKN070 OVC110 75.9 73.9 94% 75 30.02 1016.5 0.76
30 16:53 NE 10 G 18 10.00 Overcast OVC049 86 77 75% 97 30 1015.7
30 15:53 NE 5 10.00 Mostly Cloudy BKN042 89.1 75 63% 99 29.99 1015.5
30 14:53 NE 5 10.00 A Few Clouds FEW040 88 75 66% 98 30.01 1016.3
30 13:53 NE 6 10.00 Fair CLR 88 77 88 78.1 70% 100 30.04 1017.2
30 12:53 E 8 10.00 Partly Cloudy SCT020 SCT027 86 77 75% 97 30.06 1017.7
30 11:53 E 6 10.00 Partly Cloudy SCT020 84.9 77 77% 95 30.07 1018.3
30 10:53 E 8 10.00 Partly Cloudy SCT015 82.9 77 82% 92 30.08 1018.4
30 09:53 E 7 10.00 Partly Cloudy SCT012 81 75.9 85% 87 30.08 1018.5
30 08:53 E 7 10.00 A Few Clouds FEW012 79 75.9 90% 83 30.07 1018.3
30 07:53 E 5 10.00 Fair CLR 78.1 75 78.1 75.9 90% 81 30.05 1017.6
30 06:53 E 3 10.00 Fair CLR 75.9 75 97% 75 30.04 1017.1
30 05:53 Calm 10.00 Fair CLR 75.9 73.9 94% 75 30.02 1016.6
30 04:53 SE 6 10.00 Fair CLR 77 73.9 90% 78 30.02 1016.5
30 03:53 SE 8 10.00 Fair CLR 77 73 88% 78 30.03 1016.9
30 02:53 E 6 10.00 Fair CLR 77 73 88% 78 30.04 1017.1
30 01:53 E 7 10.00 Fair CLR 77 73 78.1 77 88% 78 30.04 1017.1
30 00:53 E 8 10.00 Fair CLR 77 73.9 90% 78 30.06 1017.7
29 23:53 NE 8 10.00 Fair CLR 77 73.9 90% 78 30.05 1017.7
29 22:53 E 10 10.00 Fair CLR 78.1 73.9 87% 81 30.06 1017.9
29 21:53 E 7 10.00 Fair CLR 77 73.9 90% 78 30.06 1018.0
29 20:53 E 10 10.00 Fair CLR 77 75 94% 78 30.01 1016.2
29 19:53 E 7 10.00 Light Rain BKN110 77 75 93 75.9 94% 78 30.03 1016.9 0.03 0.03
29 18:53 S 8 10.00 Thunderstorm in Vicinity SCT075 SCT110 77 72 85% 78 30.05 1017.7
29 17:53 NE 9 10.00 Mostly Cloudy SCT044 SCT060 BKN080 87.1 77 72% 99 30.01 1016.3
Date Time (edt) Wind (mph) Vis. (mi.) Weather Sky Cond. Air Dwpt Max. Min. Relative Humidity Wind Chill (°F) Heat Index (°F) altimeter (in) sea level (mb) 1 hr 3 hr 6 hr
6 hour
Temperature (ºF) Pressure Precipitation (in)